| time (UTC) | temp F | wind direction | speed knots | gust knots | rain 1hr in | rain 24hr in | rain mn in | humidity % | barometer mb |
| 20260510203314 | 72 | 359 | 0.0 | 0.0 | 0.01 | 0.01 | 0.01 | 70 | 1011.5 |
| 20260510202819 | 72 | 359 | 0.0 | 0.0 | 0.01 | 0.01 | 0.01 | 70 | 1011.6 |
| 20260510202323 | 73 | 359 | 0.0 | 0.0 | 0.01 | 0.01 | 0.01 | 70 | 1011.7 |
| 20260510201825 | 73 | 359 | 0.0 | 0.0 | 0.01 | 0.01 | 0.01 | 68 | 1011.7 |
| 20260510201328 | 73 | 359 | 0.0 | 0.9 | 0.01 | 0.01 | 0.01 | 68 | 1011.7 |
| 20260510200811 | 73 | 359 | 0.0 | 0.9 | 0.01 | 0.01 | 0.01 | 68 | 1011.7 |
| 20260510200315 | 73 | 359 | 0.0 | 0.9 | 0.01 | 0.01 | 0.01 | 66 | 1011.7 |
| 20260510195819 | 74 | 46 | 0.0 | 2.6 | 0.01 | 0.01 | 0.01 | 66 | 1011.7 |
| 20260510195322 | 74 | 326 | 0.9 | 2.6 | 0.01 | 0.01 | 0.01 | 69 | 1011.9 |
| 20260510194824 | 73 | 337 | 0.0 | 0.9 | 0.01 | 0.01 | 0.01 | 72 | 1012.0 |
| 20260510194327 | 73 | 323 | 0.0 | 4.3 | 0.01 | 0.01 | 0.01 | 70 | 1012.1 |
| 20260510193852 | 74 | 321 | 0.0 | 4.3 | 0.00 | 0.00 | 0.00 | 65 | 1012.2 |
| 20260510193315 | 74 | 27 | 0.9 | 5.2 | 0.00 | 0.00 | 0.00 | 62 | 1012.2 |
| 20260510192818 | 74 | 349 | 1.7 | 6.1 | 0.00 | 0.00 | 0.00 | 61 | 1012.2 |
| 20260510192322 | 75 | 100 | 2.6 | 6.1 | 0.00 | 0.00 | 0.00 | 58 | 1012.2 |
| 20260510191824 | 75 | 44 | 0.9 | 4.3 | 0.00 | 0.00 | 0.00 | 57 | 1012.1 |
| 20260510191329 | 75 | 360 | 0.9 | 3.5 | 0.00 | 0.00 | 0.00 | 56 | 1012.1 |
| 20260510190832 | 75 | 339 | 0.0 | 3.5 | 0.00 | 0.00 | 0.00 | 58 | 1012.1 |
| 20260510190314 | 75 | 281 | 0.9 | 3.5 | 0.00 | 0.00 | 0.00 | 58 | 1012.2 |
| 20260510185816 | 75 | 359 | 0.9 | 2.6 | 0.00 | 0.00 | 0.00 | 58 | 1012.3 |
| 20260510185320 | 75 | 352 | 0.9 | 4.3 | 0.00 | 0.00 | 0.00 | 57 | 1012.3 |
| 20260510184823 | 76 | 356 | 1.7 | 4.3 | 0.00 | 0.00 | 0.00 | 56 | 1012.2 |
| 20260510184327 | 77 | 347 | 1.7 | 2.6 | 0.00 | 0.00 | 0.00 | 55 | 1012.1 |
| 20260510183850 | 77 | 345 | 0.0 | 2.6 | 0.00 | 0.00 | 0.00 | 54 | 1012.1 |
| 20260510183313 | 78 | 3 | 0.9 | 1.7 | 0.00 | 0.00 | 0.00 | 50 | 1012.1 |
| 20260510182816 | 78 | 346 | 0.9 | 1.7 | 0.00 | 0.00 | 0.00 | 49 | 1012.1 |
| 20260510182319 | 79 | 65 | 0.0 | 5.2 | 0.00 | 0.00 | 0.00 | 49 | 1012.0 |
| 20260510181822 | 79 | 141 | 0.9 | 5.2 | 0.00 | 0.00 | 0.00 | 47 | 1012.1 |
| 20260510181326 | 80 | 6 | 0.9 | 4.3 | 0.00 | 0.00 | 0.00 | 46 | 1012.1 |
| 20260510180828 | 81 | 5 | 0.9 | 4.3 | 0.00 | 0.00 | 0.00 | 45 | 1012.1 |
| 20260510180311 | 81 | 340 | 0.9 | 7.0 | 0.00 | 0.00 | 0.00 | 45 | 1012.2 |
| 20260510175815 | 81 | 143 | 2.6 | 7.0 | 0.00 | 0.00 | 0.00 | 47 | 1012.2 |
| 20260510175320 | 81 | 6 | 1.7 | 6.1 | 0.00 | 0.00 | 0.00 | 46 | 1012.2 |
| 20260510174846 | 81 | 127 | 0.9 | 3.5 | 0.00 | 0.00 | 0.00 | 50 | 1012.2 |
| 20260510174330 | 81 | 111 | 1.7 | 3.5 | 0.00 | 0.00 | 0.00 | 50 | 1012.3 |
| 20260510173814 | 80 | 188 | 1.7 | 6.1 | 0.00 | 0.00 | 0.00 | 50 | 1012.3 |
| 20260510173317 | 80 | 223 | 1.7 | 6.1 | 0.00 | 0.00 | 0.00 | 50 | 1012.4 |
| 20260510172821 | 79 | 74 | 1.7 | 8.7 | 0.00 | 0.00 | 0.00 | 50 | 1012.3 |
| 20260510172325 | 79 | 229 | 0.9 | 5.2 | 0.00 | 0.00 | 0.00 | 53 | 1012.2 |
| 20260510171828 | 79 | 12 | 0.9 | 4.3 | 0.00 | 0.00 | 0.00 | 51 | 1012.3 |
| 20260510171314 | 79 | 172 | 0.9 | 7.0 | 0.00 | 0.00 | 0.00 | 51 | 1012.4 |
| 20260510170817 | 79 | 351 | 2.6 | 7.0 | 0.00 | 0.00 | 0.00 | 48 | 1012.3 |
| 20260510170321 | 79 | 142 | 0.9 | 7.0 | 0.00 | 0.00 | 0.00 | 51 | 1012.3 |
| 20260510165825 | 79 | 229 | 0.9 | 3.5 | 0.00 | 0.00 | 0.00 | 53 | 1012.3 |
| 20260510165350 | 79 | 333 | 0.9 | 3.5 | 0.00 | 0.00 | 0.00 | 51 | 1012.4 |
| 20260510164812 | 78 | 19 | 0.9 | 4.3 | 0.00 | 0.00 | 0.00 | 52 | 1012.5 |
| 20260510164336 | 79 | 336 | 0.9 | 4.3 | 0.00 | 0.00 | 0.00 | 53 | 1012.4 |
| 20260510163819 | 79 | 259 | 0.0 | 2.6 | 0.00 | 0.00 | 0.00 | 55 | 1012.4 |
| 20260510163322 | 78 | 264 | 0.0 | 2.6 | 0.00 | 0.00 | 0.00 | 53 | 1012.5 |
| 20260510162847 | 78 | 169 | 1.7 | 3.5 | 0.00 | 0.00 | 0.00 | 55 | 1012.5 |
| 20260510162330 | 78 | 344 | 0.9 | 3.5 | 0.00 | 0.00 | 0.00 | 56 | 1012.5 |
| 20260510161813 | 77 | 172 | 0.9 | 2.6 | 0.00 | 0.00 | 0.00 | 57 | 1012.5 |
| 20260510161317 | 76 | 264 | 0.9 | 6.1 | 0.00 | 0.00 | 0.00 | 60 | 1012.5 |
| 20260510160821 | 76 | 354 | 1.7 | 6.1 | 0.00 | 0.00 | 0.00 | 57 | 1012.5 |
| 20260510160326 | 76 | 153 | 0.0 | 2.6 | 0.00 | 0.00 | 0.00 | 58 | 1012.5 |
| 20260510155828 | 75 | 345 | 0.9 | 2.6 | 0.00 | 0.00 | 0.00 | 57 | 1012.5 |
| 20260510155312 | 75 | 326 | 0.9 | 4.3 | 0.00 | 0.00 | 0.00 | 60 | 1012.6 |
| 20260510154817 | 75 | 342 | 1.7 | 4.3 | 0.00 | 0.00 | 0.00 | 58 | 1012.6 |
| 20260510154320 | 75 | 172 | 0.9 | 1.7 | 0.00 | 0.00 | 0.00 | 59 | 1012.7 |
| 20260510153824 | 75 | 262 | 0.9 | 2.6 | 0.00 | 0.00 | 0.00 | 61 | 1012.7 |
| 20260510153327 | 74 | 164 | 0.9 | 3.5 | 0.00 | 0.00 | 0.00 | 62 | 1012.6 |
| 20260510152830 | 74 | 160 | 0.9 | 3.5 | 0.00 | 0.00 | 0.00 | 64 | 1012.6 |
| 20260510152314 | 73 | 359 | 0.9 | 1.7 | 0.00 | 0.00 | 0.00 | 64 | 1012.6 |
| 20260510151818 | 73 | 338 | 0.9 | 3.5 | 0.00 | 0.00 | 0.00 | 64 | 1012.7 |
| 20260510151322 | 72 | 64 | 0.0 | 3.5 | 0.00 | 0.00 | 0.00 | 67 | 1012.7 |
| 20260510150825 | 72 | 160 | 0.9 | 2.6 | 0.00 | 0.00 | 0.00 | 66 | 1012.7 |
| 20260510150327 | 71 | 152 | 0.0 | 5.2 | 0.00 | 0.00 | 0.00 | 67 | 1012.6 |
| 20260510145829 | 70 | 203 | 2.6 | 5.2 | 0.00 | 0.00 | 0.00 | 68 | 1012.6 |
| 20260510145313 | 69 | 352 | 0.9 | 4.3 | 0.00 | 0.00 | 0.00 | 70 | 1012.7 |
| 20260510144818 | 69 | 354 | 0.0 | 2.6 | 0.00 | 0.00 | 0.00 | 71 | 1012.8 |
| 20260510144322 | 68 | 166 | 0.9 | 2.6 | 0.00 | 0.00 | 0.00 | 73 | 1012.8 |
| 20260510143826 | 68 | 333 | 0.9 | 2.6 | 0.00 | 0.00 | 0.00 | 71 | 1012.8 |
| 20260510143331 | 68 | 15 | 0.9 | 3.5 | 0.00 | 0.00 | 0.00 | 73 | 1012.8 |
| 20260510142815 | 67 | 335 | 1.7 | 3.5 | 0.00 | 0.00 | 0.00 | 74 | 1012.9 |
| 20260510142318 | 66 | 223 | 0.0 | 2.6 | 0.00 | 0.00 | 0.00 | 76 | 1012.9 |
| 20260510141821 | 66 | 322 | 0.9 | 2.6 | 0.00 | 0.00 | 0.00 | 77 | 1012.8 |
| 20260510141326 | 65 | 159 | 0.0 | 2.6 | 0.00 | 0.00 | 0.00 | 78 | 1012.8 |
| 20260510140828 | 65 | 335 | 0.9 | 2.6 | 0.00 | 0.00 | 0.00 | 77 | 1012.8 |
| 20260510140332 | 64 | 353 | 0.0 | 2.6 | 0.00 | 0.00 | 0.00 | 79 | 1012.8 |
| 20260510135814 | 64 | 267 | 0.0 | 2.6 | 0.00 | 0.00 | 0.00 | 81 | 1012.8 |
| 20260510135318 | 63 | 353 | 0.9 | 2.6 | 0.00 | 0.00 | 0.00 | 82 | 1012.9 |
| 20260510134822 | 63 | 161 | 0.9 | 1.7 | 0.00 | 0.00 | 0.00 | 84 | 1012.9 |
| 20260510134326 | 62 | 138 | 0.0 | 0.0 | 0.00 | 0.00 | 0.00 | 85 | 1012.9 |
| 20260510133830 | 62 | 157 | 0.0 | 0.0 | 0.00 | 0.00 | 0.00 | 87 | 1012.9 |
| 20260510133332 | 61 | 154 | 0.0 | 0.0 | 0.00 | 0.00 | 0.00 | 87 | 1012.8 |
| 20260510132815 | 61 | 153 | 0.0 | 0.0 | 0.00 | 0.00 | 0.00 | 88 | 1012.8 |
| 20260510132318 | 60 | 126 | 0.0 | 0.0 | 0.00 | 0.00 | 0.00 | 89 | 1012.8 |
| 20260510131822 | 60 | 104 | 0.0 | 0.0 | 0.00 | 0.00 | 0.00 | 91 | 1012.8 |
| 20260510131325 | 59 | 105 | 0.0 | 0.0 | 0.00 | 0.00 | 0.00 | 91 | 1012.9 |
| 20260510130827 | 59 | 151 | 0.0 | 0.0 | 0.00 | 0.00 | 0.00 | 91 | 1013.0 |
| 20260510130330 | 58 | 122 | 0.0 | 0.0 | 0.00 | 0.00 | 0.00 | 92 | 1013.0 |
| 20260510125813 | 58 | 115 | 0.0 | 0.0 | 0.00 | 0.00 | 0.00 | 92 | 1013.0 |
| 20260510125335 | 58 | 6 | 0.0 | 0.0 | 0.00 | 0.00 | 0.00 | 93 | 1012.9 |
| 20260510124837 | 58 | 359 | 0.0 | 0.0 | 0.00 | 0.00 | 0.00 | 93 | 1012.9 |
| 20260510124340 | 57 | 344 | 0.0 | 0.0 | 0.00 | 0.00 | 0.00 | 93 | 1013.0 |
| 20260510123822 | 57 | 343 | 0.0 | 0.0 | 0.00 | 0.00 | 0.00 | 93 | 1012.9 |
| 20260510123327 | 56 | 74 | 0.0 | 0.0 | 0.00 | 0.00 | 0.00 | 93 | 1012.9 |
| 20260510122830 | 56 | 74 | 0.0 | 0.9 | 0.00 | 0.00 | 0.00 | 93 | 1012.8 |
| 20260510122315 | 56 | 74 | 0.0 | 0.9 | 0.00 | 0.00 | 0.00 | 93 | 1012.7 |
| 20260510121819 | 56 | 41 | 0.0 | 0.9 | 0.00 | 0.00 | 0.00 | 94 | 1012.7 |
| 20260510121324 | 56 | 35 | 0.0 | 0.9 | 0.00 | 0.00 | 0.00 | 94 | 1012.6 |
| 20260510120827 | 56 | 35 | 0.0 | 0.9 | 0.00 | 0.00 | 0.00 | 94 | 1012.6 |
| 20260510120351 | 55 | 352 | 0.0 | 0.0 | 0.00 | 0.00 | 0.00 | 94 | 1012.5 |
| 20260510115815 | 55 | 352 | 0.0 | 0.0 | 0.00 | 0.00 | 0.00 | 94 | 1012.4 |
| 20260510115341 | 54 | 352 | 0.0 | 1.7 | 0.00 | 0.00 | 0.00 | 94 | 1012.2 |
| 20260510114824 | 54 | 351 | 0.0 | 3.5 | 0.00 | 0.00 | 0.00 | 94 | 1012.5 |
| 20260510114327 | 54 | 328 | 0.9 | 3.5 | 0.00 | 0.00 | 0.00 | 94 | 1012.6 |
| 20260510113829 | 54 | 15 | 0.0 | 0.9 | 0.00 | 0.00 | 0.00 | 94 | 1012.5 |
| 20260510113333 | 54 | 15 | 0.0 | 1.7 | 0.00 | 0.00 | 0.00 | 94 | 1012.3 |
| 20260510112814 | 53 | 326 | 0.0 | 0.9 | 0.00 | 0.00 | 0.00 | 94 | 1012.2 |
| 20260510112318 | 53 | 64 | 0.0 | 0.0 | 0.00 | 0.00 | 0.00 | 94 | 1012.2 |
| 20260510111822 | 53 | 64 | 0.0 | 0.0 | 0.00 | 0.00 | 0.00 | 94 | 1012.0 |
| 20260510111326 | 53 | 331 | 0.0 | 0.9 | 0.00 | 0.00 | 0.00 | 94 | 1012.0 |
| 20260510110830 | 52 | 330 | 0.0 | 0.9 | 0.00 | 0.00 | 0.00 | 94 | 1011.9 |
| 20260510110352 | 52 | 355 | 0.0 | 0.0 | 0.00 | 0.00 | 0.00 | 94 | 1011.8 |
| 20260510105835 | 52 | 347 | 0.0 | 0.9 | 0.00 | 0.00 | 0.00 | 94 | 1011.9 |
| 20260510105319 | 52 | 347 | 0.0 | 0.9 | 0.00 | 0.00 | 0.00 | 94 | 1011.8 |
| 20260510104822 | 52 | 350 | 0.0 | 0.9 | 0.00 | 0.00 | 0.00 | 94 | 1011.8 |
| 20260510104326 | 51 | 62 | 0.0 | 0.0 | 0.00 | 0.00 | 0.00 | 93 | 1011.4 |
| 20260510103829 | 51 | 62 | 0.0 | 0.0 | 0.00 | 0.00 | 0.00 | 93 | 1011.5 |
| 20260510103312 | 51 | 62 | 0.0 | 0.0 | 0.00 | 0.00 | 0.00 | 93 | 1011.5 |
| 20260510102817 | 51 | 62 | 0.0 | 0.0 | 0.00 | 0.00 | 0.00 | 93 | 1011.5 |
| 20260510102321 | 51 | 62 | 0.0 | 0.0 | 0.00 | 0.00 | 0.00 | 93 | 1011.4 |
| 20260510101824 | 51 | 62 | 0.0 | 0.0 | 0.00 | 0.00 | 0.00 | 93 | 1011.4 |
| 20260510101330 | 51 | 62 | 0.0 | 0.0 | 0.00 | 0.00 | 0.00 | 93 | 1011.3 |
| 20260510100812 | 51 | 62 | 0.0 | 0.0 | 0.00 | 0.00 | 0.00 | 93 | 1011.2 |
| 20260510100316 | 51 | 62 | 0.0 | 0.0 | 0.00 | 0.00 | 0.00 | 93 | 1011.5 |
| 20260510095819 | 51 | 63 | 0.0 | 0.0 | 0.00 | 0.00 | 0.00 | 93 | 1011.3 |
| 20260510095324 | 51 | 346 | 0.0 | 0.0 | 0.00 | 0.00 | 0.00 | 93 | 1011.3 |
| 20260510094826 | 51 | 346 | 0.0 | 0.0 | 0.00 | 0.00 | 0.00 | 93 | 1011.2 |
| 20260510094331 | 52 | 346 | 0.0 | 4.3 | 0.00 | 0.00 | 0.00 | 94 | 1011.3 |
| 20260510093814 | 52 | 345 | 0.9 | 4.3 | 0.00 | 0.00 | 0.00 | 94 | 1011.7 |
| 20260510093318 | 52 | 330 | 0.0 | 4.3 | 0.00 | 0.00 | 0.00 | 94 | 1011.2 |
| 20260510092822 | 52 | 330 | 0.9 | 4.3 | 0.00 | 0.00 | 0.00 | 94 | 1011.4 |
| 20260510092326 | 52 | 360 | 0.0 | 3.5 | 0.00 | 0.00 | 0.00 | 94 | 1011.0 |
| 20260510091829 | 52 | 338 | 0.0 | 3.5 | 0.00 | 0.00 | 0.00 | 95 | 1011.1 |
| 20260510091313 | 52 | 345 | 0.0 | 4.3 | 0.00 | 0.00 | 0.00 | 95 | 1010.8 |
| 20260510090817 | 51 | 340 | 0.9 | 5.2 | 0.00 | 0.00 | 0.00 | 95 | 1010.9 |
| 20260510090322 | 50 | 136 | 0.0 | 5.2 | 0.00 | 0.00 | 0.00 | 94 | 1010.6 |
| 20260510085845 | 49 | 338 | 0.0 | 2.6 | 0.00 | 0.00 | 0.00 | 94 | 1010.7 |
| 20260510085326 | 47 | 332 | 0.0 | 0.9 | 0.00 | 0.00 | 0.00 | 93 | 1010.7 |
| 20260510084829 | 47 | 73 | 0.0 | 0.0 | 0.00 | 0.00 | 0.00 | 93 | 1010.6 |
| 20260510084313 | 47 | 73 | 0.0 | 0.0 | 0.00 | 0.00 | 0.00 | 93 | 1010.5 |
| 20260510083814 | 47 | 73 | 0.0 | 0.0 | 0.00 | 0.00 | 0.00 | 93 | 1010.6 |
| 20260510083318 | 47 | 73 | 0.0 | 0.0 | 0.00 | 0.00 | 0.00 | 93 | 1010.5 |
| 20260510082823 | 48 | 73 | 0.0 | 0.0 | 0.00 | 0.00 | 0.00 | 93 | 1010.5 |
| 20260510082327 | 48 | 73 | 0.0 | 0.0 | 0.00 | 0.00 | 0.00 | 93 | 1010.5 |
| 20260510081812 | 48 | 73 | 0.0 | 0.0 | 0.00 | 0.00 | 0.00 | 93 | 1010.6 |
| 20260510081316 | 48 | 73 | 0.0 | 0.0 | 0.00 | 0.00 | 0.00 | 93 | 1010.5 |
| 20260510080818 | 48 | 73 | 0.0 | 0.0 | 0.00 | 0.00 | 0.00 | 93 | 1010.5 |
| 20260510080323 | 48 | 73 | 0.0 | 0.0 | 0.00 | 0.00 | 0.00 | 93 | 1010.4 |
| 20260510075826 | 48 | 73 | 0.0 | 0.0 | 0.00 | 0.00 | 0.00 | 93 | 1010.4 |
| 20260510075328 | 48 | 73 | 0.0 | 0.0 | 0.00 | 0.00 | 0.00 | 93 | 1010.4 |
| 20260510074833 | 48 | 73 | 0.0 | 0.0 | 0.00 | 0.00 | 0.00 | 93 | 1010.3 |
| 20260510074317 | 48 | 73 | 0.0 | 0.0 | 0.00 | 0.00 | 0.00 | 93 | 1010.2 |
| 20260510073820 | 48 | 73 | 0.0 | 0.0 | 0.00 | 0.00 | 0.00 | 93 | 1010.3 |
| 20260510073325 | 48 | 73 | 0.0 | 0.0 | 0.00 | 0.00 | 0.00 | 93 | 1010.2 |
| 20260510072829 | 48 | 73 | 0.0 | 0.0 | 0.00 | 0.00 | 0.00 | 93 | 1010.1 |
| 20260510072313 | 48 | 73 | 0.0 | 0.0 | 0.00 | 0.00 | 0.00 | 93 | 1010.0 |
| 20260510071818 | 48 | 73 | 0.0 | 0.0 | 0.00 | 0.00 | 0.00 | 93 | 1009.8 |
| 20260510071320 | 48 | 73 | 0.0 | 0.0 | 0.00 | 0.00 | 0.00 | 93 | 1009.7 |
| 20260510070846 | 48 | 73 | 0.0 | 0.0 | 0.00 | 0.00 | 0.00 | 93 | 1009.7 |
| 20260510070329 | 48 | 73 | 0.0 | 0.0 | 0.00 | 0.00 | 0.00 | 93 | 1009.7 |
| 20260510065834 | 48 | 73 | 0.0 | 0.0 | 0.00 | 0.00 | 0.00 | 93 | 1009.7 |
| 20260510065337 | 48 | 73 | 0.0 | 0.0 | 0.00 | 0.00 | 0.00 | 93 | 1009.8 |
| 20260510064820 | 48 | 73 | 0.0 | 0.0 | 0.00 | 0.00 | 0.00 | 92 | 1009.8 |
| 20260510064323 | 48 | 73 | 0.0 | 0.0 | 0.00 | 0.00 | 0.00 | 92 | 1009.8 |
| 20260510063826 | 48 | 73 | 0.0 | 0.0 | 0.00 | 0.00 | 0.00 | 93 | 1009.9 |
| 20260510063331 | 48 | 73 | 0.0 | 0.0 | 0.00 | 0.00 | 0.00 | 93 | 1009.9 |
| 20260510062814 | 48 | 73 | 0.0 | 0.0 | 0.00 | 0.00 | 0.00 | 93 | 1010.0 |
| 20260510062338 | 48 | 73 | 0.0 | 0.0 | 0.00 | 0.00 | 0.00 | 92 | 1010.0 |
| 20260510061821 | 48 | 73 | 0.0 | 0.0 | 0.00 | 0.00 | 0.00 | 92 | 1010.0 |
| 20260510061324 | 48 | 73 | 0.0 | 0.0 | 0.00 | 0.00 | 0.00 | 92 | 1010.2 |
| 20260510060848 | 48 | 73 | 0.0 | 0.0 | 0.00 | 0.00 | 0.00 | 92 | 1010.1 |
| 20260510060330 | 48 | 73 | 0.0 | 0.0 | 0.00 | 0.00 | 0.00 | 92 | 1010.1 |
| 20260510055812 | 48 | 73 | 0.0 | 0.0 | 0.00 | 0.00 | 0.00 | 92 | 1010.1 |
| 20260510055316 | 48 | 73 | 0.0 | 0.0 | 0.00 | 0.00 | 0.00 | 92 | 1010.1 |
| 20260510054820 | 48 | 73 | 0.0 | 0.0 | 0.00 | 0.00 | 0.00 | 92 | 1010.2 |
| 20260510054323 | 48 | 73 | 0.0 | 0.0 | 0.00 | 0.00 | 0.00 | 92 | 1010.2 |
| 20260510053827 | 48 | 73 | 0.0 | 0.0 | 0.00 | 0.00 | 0.00 | 92 | 1010.2 |
| 20260510053331 | 48 | 73 | 0.0 | 0.0 | 0.00 | 0.00 | 0.00 | 92 | 1010.2 |
| 20260510052813 | 48 | 73 | 0.0 | 0.0 | 0.00 | 0.00 | 0.00 | 92 | 1010.3 |
| 20260510052318 | 48 | 73 | 0.0 | 0.0 | 0.00 | 0.00 | 0.00 | 92 | 1010.3 |
| 20260510051822 | 48 | 73 | 0.0 | 0.0 | 0.00 | 0.00 | 0.00 | 92 | 1010.3 |
| 20260510051325 | 48 | 73 | 0.0 | 0.0 | 0.00 | 0.00 | 0.00 | 92 | 1010.4 |
| 20260510050830 | 48 | 73 | 0.0 | 0.0 | 0.00 | 0.00 | 0.00 | 92 | 1010.4 |
| 20260510050313 | 48 | 73 | 0.0 | 0.0 | 0.00 | 0.00 | 0.00 | 92 | 1010.4 |
| 20260510045818 | 48 | 73 | 0.0 | 0.0 | 0.00 | 0.00 | 0.00 | 92 | 1010.3 |
| 20260510045344 | 48 | 73 | 0.0 | 0.0 | 0.00 | 0.00 | 0.00 | 92 | 1010.4 |
| 20260510044824 | 49 | 73 | 0.0 | 0.0 | 0.00 | 0.00 | 0.00 | 92 | 1010.5 |
| 20260510044348 | 48 | 73 | 0.0 | 0.0 | 0.00 | 0.00 | 0.00 | 91 | 1010.5 |
| 20260510043832 | 48 | 73 | 0.0 | 0.0 | 0.00 | 0.00 | 0.00 | 91 | 1010.5 |
| 20260510043315 | 49 | 73 | 0.0 | 0.0 | 0.00 | 0.00 | 0.00 | 91 | 1010.5 |
| 20260510042838 | 49 | 73 | 0.0 | 0.0 | 0.00 | 0.00 | 0.00 | 91 | 1010.6 |
| 20260510042322 | 49 | 73 | 0.0 | 0.0 | 0.00 | 0.00 | 0.00 | 91 | 1010.6 |
| 20260510041825 | 49 | 73 | 0.0 | 0.0 | 0.00 | 0.00 | 0.00 | 91 | 1010.6 |
| 20260510041330 | 49 | 73 | 0.0 | 0.0 | 0.00 | 0.00 | 0.00 | 91 | 1010.5 |
| 20260510040833 | 49 | 73 | 0.0 | 0.0 | 0.00 | 0.00 | 0.00 | 91 | 1010.6 |
| 20260510040316 | 49 | 73 | 0.0 | 0.0 | 0.00 | 0.00 | 0.00 | 91 | 1010.5 |
| 20260510035819 | 49 | 73 | 0.0 | 0.0 | 0.00 | 0.00 | 0.00 | 91 | 1010.6 |
| 20260510035323 | 49 | 73 | 0.0 | 0.0 | 0.00 | 0.00 | 0.00 | 91 | 1010.5 |
| 20260510034828 | 49 | 73 | 0.0 | 0.0 | 0.00 | 0.00 | 0.00 | 91 | 1010.6 |
| 20260510034331 | 49 | 73 | 0.0 | 0.0 | 0.00 | 0.00 | 0.00 | 91 | 1010.5 |
| 20260510033815 | 49 | 73 | 0.0 | 0.0 | 0.00 | 0.00 | 0.00 | 91 | 1010.4 |
| 20260510033338 | 49 | 73 | 0.0 | 0.0 | 0.00 | 0.00 | 0.00 | 91 | 1010.4 |
| 20260510032840 | 49 | 73 | 0.0 | 0.0 | 0.00 | 0.00 | 0.00 | 91 | 1010.4 |
| 20260510032324 | 49 | 73 | 0.0 | 0.0 | 0.00 | 0.00 | 0.00 | 90 | 1010.2 |
| 20260510031826 | 50 | 73 | 0.0 | 0.0 | 0.00 | 0.00 | 0.00 | 90 | 1010.1 |
| 20260510031329 | 50 | 73 | 0.0 | 0.0 | 0.00 | 0.00 | 0.00 | 90 | 1010.2 |
| 20260510030814 | 50 | 73 | 0.0 | 0.0 | 0.00 | 0.00 | 0.00 | 90 | 1010.1 |
| 20260510030339 | 50 | 73 | 0.0 | 0.0 | 0.00 | 0.00 | 0.00 | 90 | 1010.1 |
| 20260510025843 | 50 | 73 | 0.0 | 0.0 | 0.00 | 0.00 | 0.00 | 90 | 1010.1 |
| 20260510025325 | 50 | 73 | 0.0 | 0.0 | 0.00 | 0.00 | 0.00 | 90 | 1010.1 |
| 20260510024849 | 50 | 73 | 0.0 | 0.0 | 0.00 | 0.00 | 0.00 | 90 | 1010.0 |
| 20260510024313 | 50 | 73 | 0.0 | 0.0 | 0.00 | 0.00 | 0.00 | 90 | 1010.0 |
| 20260510023817 | 50 | 73 | 0.0 | 0.0 | 0.00 | 0.00 | 0.00 | 90 | 1010.0 |
| 20260510023322 | 50 | 73 | 0.0 | 0.0 | 0.00 | 0.00 | 0.00 | 90 | 1010.1 |
| 20260510022827 | 50 | 73 | 0.0 | 0.0 | 0.00 | 0.00 | 0.00 | 89 | 1010.2 |
| 20260510022331 | 51 | 73 | 0.0 | 0.0 | 0.00 | 0.00 | 0.00 | 89 | 1010.1 |
| 20260510021835 | 51 | 73 | 0.0 | 0.0 | 0.00 | 0.00 | 0.00 | 89 | 1010.1 |
| 20260510021316 | 51 | 73 | 0.0 | 0.0 | 0.00 | 0.00 | 0.00 | 89 | 1010.1 |
| 20260510020820 | 51 | 73 | 0.0 | 0.0 | 0.00 | 0.00 | 0.00 | 89 | 1010.0 |
| 20260510020344 | 51 | 73 | 0.0 | 0.0 | 0.00 | 0.00 | 0.00 | 89 | 1010.0 |
| 20260510015826 | 51 | 73 | 0.0 | 0.0 | 0.00 | 0.00 | 0.00 | 89 | 1010.0 |
| 20260510015331 | 52 | 73 | 0.0 | 0.0 | 0.00 | 0.00 | 0.00 | 88 | 1009.9 |
| 20260510014835 | 52 | 73 | 0.0 | 0.0 | 0.00 | 0.00 | 0.00 | 88 | 1009.9 |
| 20260510014316 | 52 | 73 | 0.0 | 0.0 | 0.00 | 0.00 | 0.00 | 88 | 1009.9 |
| 20260510013821 | 52 | 73 | 0.0 | 0.0 | 0.00 | 0.00 | 0.00 | 88 | 1009.8 |
| 20260510013325 | 53 | 73 | 0.0 | 0.0 | 0.00 | 0.00 | 0.00 | 88 | 1009.9 |
| 20260510012827 | 53 | 73 | 0.0 | 0.0 | 0.00 | 0.00 | 0.00 | 88 | 1009.9 |
| 20260510012331 | 53 | 73 | 0.0 | 0.0 | 0.00 | 0.00 | 0.00 | 87 | 1009.9 |
| 20260510011815 | 53 | 73 | 0.0 | 0.0 | 0.00 | 0.00 | 0.00 | 87 | 1009.8 |
| 20260510011319 | 54 | 73 | 0.0 | 0.0 | 0.00 | 0.00 | 0.00 | 87 | 1009.8 |
| 20260510010823 | 53 | 73 | 0.0 | 0.0 | 0.00 | 0.00 | 0.00 | 86 | 1009.6 |
| 20260510010325 | 54 | 73 | 0.0 | 0.0 | 0.00 | 0.00 | 0.00 | 85 | 1009.7 |
| 20260510005828 | 54 | 73 | 0.0 | 0.0 | 0.00 | 0.00 | 0.00 | 85 | 1009.6 |
| 20260510005312 | 55 | 73 | 0.0 | 0.0 | 0.00 | 0.00 | 0.00 | 85 | 1009.6 |
| 20260510004815 | 55 | 73 | 0.0 | 0.0 | 0.00 | 0.00 | 0.00 | 84 | 1009.6 |
| 20260510004320 | 55 | 73 | 0.0 | 0.0 | 0.00 | 0.00 | 0.00 | 84 | 1009.5 |
| 20260510003821 | 56 | 73 | 0.0 | 0.0 | 0.00 | 0.00 | 0.00 | 83 | 1009.5 |
| 20260510003346 | 56 | 73 | 0.0 | 0.0 | 0.00 | 0.00 | 0.00 | 83 | 1009.5 |
| 20260510002850 | 57 | 73 | 0.0 | 0.0 | 0.00 | 0.00 | 0.00 | 82 | 1009.4 |
| 20260510002312 | 57 | 73 | 0.0 | 0.0 | 0.00 | 0.00 | 0.00 | 82 | 1009.5 |
| 20260510001816 | 58 | 73 | 0.0 | 0.0 | 0.00 | 0.00 | 0.00 | 81 | 1009.6 |
| 20260510001322 | 58 | 73 | 0.0 | 0.0 | 0.00 | 0.00 | 0.00 | 81 | 1009.6 |
| 20260510000844 | 59 | 73 | 0.0 | 0.0 | 0.00 | 0.00 | 0.00 | 81 | 1009.6 |
| 20260510000327 | 59 | 73 | 0.0 | 0.0 | 0.00 | 0.00 | 0.00 | 80 | 1009.6 |
| 20260509235851 | 59 | 73 | 0.0 | 0.0 | 0.00 | 0.00 | 0.00 | 80 | 1009.6 |
| 20260509235315 | 60 | 73 | 0.0 | 0.0 | 0.00 | 0.00 | 0.00 | 80 | 1009.6 |
| 20260509234820 | 60 | 73 | 0.0 | 0.0 | 0.00 | 0.00 | 0.00 | 79 | 1009.5 |
| 20260509234344 | 60 | 73 | 0.0 | 0.0 | 0.00 | 0.00 | 0.00 | 79 | 1009.5 |
| 20260509233825 | 60 | 73 | 0.0 | 0.9 | 0.00 | 0.00 | 0.00 | 79 | 1009.6 |
| 20260509233331 | 60 | 73 | 0.0 | 0.9 | 0.00 | 0.00 | 0.00 | 78 | 1009.6 |
| 20260509232813 | 60 | 73 | 0.0 | 0.9 | 0.00 | 0.00 | 0.00 | 78 | 1009.5 |
| 20260509232315 | 60 | 73 | 0.0 | 1.7 | 0.00 | 0.00 | 0.00 | 78 | 1009.4 |
| 20260509231841 | 61 | 72 | 0.0 | 1.7 | 0.00 | 0.00 | 0.00 | 77 | 1009.4 |
| 20260509231343 | 61 | 64 | 0.0 | 1.7 | 0.00 | 0.00 | 0.00 | 77 | 1009.4 |
| 20260509230825 | 61 | 64 | 0.0 | 1.7 | 0.00 | 0.00 | 0.00 | 76 | 1009.3 |
| 20260509230331 | 61 | 60 | 0.9 | 1.7 | 0.00 | 0.00 | 0.00 | 76 | 1009.4 |
| 20260509225834 | 61 | 70 | 0.0 | 2.6 | 0.00 | 0.00 | 0.00 | 75 | 1009.3 |
| 20260509225318 | 62 | 81 | 0.9 | 2.6 | 0.00 | 0.00 | 0.00 | 75 | 1009.3 |
| 20260509224822 | 62 | 77 | 0.9 | 1.7 | 0.00 | 0.00 | 0.00 | 75 | 1009.2 |
| 20260509224326 | 61 | 77 | 0.0 | 2.6 | 0.00 | 0.00 | 0.00 | 75 | 1009.3 |
| 20260509223830 | 61 | 77 | 0.9 | 3.5 | 0.00 | 0.00 | 0.00 | 75 | 1009.4 |
| 20260509223333 | 61 | 78 | 0.9 | 3.5 | 0.00 | 0.00 | 0.00 | 75 | 1009.4 |
| 20260509222815 | 61 | 65 | 0.9 | 2.6 | 0.00 | 0.00 | 0.00 | 76 | 1009.4 |
| 20260509222339 | 61 | 75 | 0.9 | 1.7 | 0.00 | 0.00 | 0.00 | 76 | 1009.2 |
| 20260509221821 | 61 | 68 | 0.0 | 1.7 | 0.00 | 0.00 | 0.00 | 76 | 1009.3 |
| 20260509221325 | 61 | 65 | 0.0 | 1.7 | 0.00 | 0.00 | 0.00 | 76 | 1009.4 |
| 20260509220849 | 61 | 65 | 0.0 | 1.7 | 0.00 | 0.00 | 0.00 | 76 | 1009.4 |
| 20260509220312 | 61 | 73 | 0.9 | 1.7 | 0.00 | 0.00 | 0.00 | 76 | 1009.5 |
| 20260509215816 | 61 | 63 | 0.0 | 1.7 | 0.00 | 0.00 | 0.00 | 76 | 1009.5 |
| 20260509215319 | 61 | 58 | 0.9 | 1.7 | 0.00 | 0.00 | 0.00 | 75 | 1009.5 |
| 20260509214824 | 61 | 58 | 0.0 | 2.6 | 0.00 | 0.00 | 0.00 | 75 | 1009.5 |
| 20260509214347 | 61 | 57 | 0.9 | 2.6 | 0.00 | 0.00 | 0.00 | 75 | 1009.5 |
| 20260509213830 | 61 | 68 | 1.7 | 2.6 | 0.00 | 0.00 | 0.00 | 75 | 1009.5 |
| 20260509213315 | 61 | 75 | 0.9 | 1.7 | 0.00 | 0.00 | 0.00 | 75 | 1009.5 |
| 20260509212818 | 61 | 58 | 0.9 | 3.5 | 0.00 | 0.00 | 0.00 | 75 | 1009.5 |
| 20260509212323 | 61 | 68 | 1.7 | 3.5 | 0.00 | 0.00 | 0.00 | 75 | 1009.4 |
| 20260509211826 | 62 | 83 | 0.9 | 2.6 | 0.00 | 0.00 | 0.00 | 75 | 1009.4 |
| 20260509211312 | 62 | 56 | 0.9 | 1.7 | 0.00 | 0.00 | 0.00 | 74 | 1009.5 |
| 20260509210815 | 62 | 56 | 0.9 | 2.6 | 0.00 | 0.00 | 0.00 | 73 | 1009.5 |
| 20260509210319 | 62 | 33 | 0.9 | 2.6 | 0.00 | 0.00 | 0.00 | 73 | 1009.6 |
| 20260509205823 | 62 | 52 | 0.0 | 4.3 | 0.00 | 0.00 | 0.00 | 73 | 1009.7 |
| 20260509204830 | 62 | 316 | 1.7 | 4.3 | 0.00 | 0.00 | 0.00 | 74 | 1009.6 |
| 20260509204335 | 62 | 58 | 0.9 | 4.3 | 0.00 | 0.00 | 0.00 | 73 | 1009.5 |
| 20260509203816 | 63 | 59 | 0.0 | 2.6 | 0.00 | 0.00 | 0.00 | 72 | 1009.4 |